Location: Pine Mountain Observatory
(43.7910°N, 120.9377°W)
Time: 20:13:19
(UTC-07:00)

S-56A Canister/Altair - Visible Passes

Search period start: 21 May 2019 00:00
Search period end: 31 May 2019 00:00
Orbit: 633 x 2500 km, 38.9° (Epoch: 20 May)

Date Brightness Start Highest point End Pass type
(mag) Time Alt. Az. Time Alt. Az. Time Alt. Az.
21 May 9.2 02:15:42 29° SSE 02:16:16 30° SE 02:23:51 10° E visible
21 May 9.0 04:13:06 14° WSW 04:19:45 61° SSE 04:31:05 10° E visible
22 May 9.5 01:44:30 24° SE 01:44:30 24° SE 01:50:10 10° E visible
22 May 8.9 03:41:54 21° SW 03:46:53 57° SSE 03:57:23 10° E visible
23 May 9.8 01:13:17 17° ESE 01:13:17 17° ESE 01:16:26 10° E visible
23 May 8.7 03:10:41 30° SW 03:14:05 53° SSE 03:23:44 10° E visible
24 May 10.2 00:42:04 11° ESE 00:42:04 11° ESE 00:42:36 10° ESE visible
24 May 8.5 02:39:29 39° SSW 02:41:23 48° SSE 02:50:09 10° E visible
24 May 9.0 04:38:04 10° W 04:45:31 65° S 04:56:58 10° ESE visible
25 May 8.5 02:08:16 42° SSE 02:08:45 42° SSE 02:16:39 10° E visible
25 May 8.8 04:05:40 10° WSW 04:12:36 64° S 04:23:18 10° E visible
26 May 8.8 01:37:03 35° SE 01:37:03 35° SE 01:43:11 10° E visible
26 May 8.6 03:34:27 17° WSW 03:39:46 63° S 03:49:41 10° E visible
27 May 9.2 01:05:51 25° ESE 01:05:51 25° ESE 01:09:48 10° E visible
27 May 8.4 03:03:15 26° WSW 03:07:00 60° S 03:16:08 10° E visible
28 May 9.7 00:34:39 16° ESE 00:34:39 16° ESE 00:36:28 10° E visible
28 May 8.2 02:32:03 38° SW 02:34:18 57° S 02:42:40 10° E visible
28 May 8.9 04:31:33 10° W 04:38:26 56° S 04:48:54 10° ESE visible
29 May 8.0 02:00:53 50° SSW 02:01:39 53° SSE 02:09:16 10° E visible
29 May 8.7 03:59:10 10° W 04:05:36 56° S 04:15:22 10° ESE visible
30 May 8.1 01:29:46 47° SE 01:29:46 47° SE 01:35:58 10° E visible
30 May 8.4 03:27:10 12° W 03:32:49 57° S 03:41:53 10° ESE visible
